Time,TemperatureF,DewpointF,PressureIn,WindDirection,WindDirectionDegrees,WindSpeedMPH,WindSpeedGustMPH,Humidity,HourlyPrecipIn,Conditions,Clouds,dailyrainin,SoftwareType,DateUTC
2013-04-16 00:00:00,38.9,35.6,29.85,SW,229,0.0,0.0,88,0.00,RA,,0.00,WeatherDisplay:10.37,2013-04-16 05:00:00,
2013-04-16 00:05:00,38.7,35.5,29.85,SW,229,1.0,2.0,88,0.00,RA,,0.00,WeatherDisplay:10.37,2013-04-16 05:05:00,
2013-04-16 00:10:00,38.6,34.8,29.85,SW,229,0.0,2.0,86,0.00,CLR,,0.00,WeatherDisplay:10.37,2013-04-16 05:10:00,
2013-04-16 00:15:00,38.6,34.5,29.86,SW,229,0.0,2.0,85,0.00,CLR,,0.00,WeatherDisplay:10.37,2013-04-16 05:15:00,
2013-04-16 00:20:00,38.3,33.9,29.86,SW,229,0.0,2.0,84,0.00,CLR,,0.00,WeatherDisplay:10.37,2013-04-16 05:20:00,
2013-04-16 00:25:00,38.2,33.5,29.86,WSW,238,1.0,3.0,83,0.00,CLR,,0.00,WeatherDisplay:10.37,2013-04-16 05:25:00,
2013-04-16 00:30:00,38.0,33.0,29.88,WSW,243,1.0,3.0,82,0.00,CLR,,0.00,WeatherDisplay:10.37,2013-04-16 05:30:00,
2013-04-16 00:35:00,38.0,33.0,29.88,WSW,244,1.0,3.0,82,0.00,CLR,,0.00,WeatherDisplay:10.37,2013-04-16 05:35:00,
2013-04-16 00:40:00,38.3,32.7,29.88,WSW,250,1.0,4.0,80,0.00,CLR,,0.00,WeatherDisplay:10.37,2013-04-16 05:40:00,
2013-04-16 00:45:00,38.6,32.3,29.87,WNW,293,2.0,7.0,78,0.00,CLR,,0.00,WeatherDisplay:10.37,2013-04-16 05:45:00,
2013-04-16 00:50:00,38.8,32.2,29.87,WNW,303,3.0,6.0,77,0.00,CLR,,0.00,WeatherDisplay:10.37,2013-04-16 05:50:00,
2013-04-16 00:55:00,38.8,31.9,29.87,WNW,301,2.0,6.0,76,0.00,CLR,,0.00,WeatherDisplay:10.37,2013-04-16 05:55:00,
2013-04-16 01:00:00,38.7,32.1,29.87,WNW,300,1.0,4.0,77,0.00,CLR,,0.00,WeatherDisplay:10.37,2013-04-16 06:00:00,
2013-04-16 01:05:00,38.5,32.2,29.87,WNW,300,2.0,4.0,78,0.00,CLR,,0.00,WeatherDisplay:10.37,2013-04-16 06:05:00,
2013-04-16 01:10:00,38.3,31.7,29.87,WNW,299,2.0,4.0,77,0.00,CLR,,0.00,WeatherDisplay:10.37,2013-04-16 06:10:00,
2013-04-16 01:15:00,38.3,32.0,29.86,WNW,299,2.0,4.0,78,0.00,CLR,,0.00,WeatherDisplay:10.37,2013-04-16 06:15:00,
2013-04-16 01:25:00,38.0,32.1,29.86,WNW,300,1.0,3.0,79,0.00,CLR,,0.00,WeatherDisplay:10.37,2013-04-16 06:25:00,
2013-04-16 01:30:00,37.9,32.3,29.86,WNW,300,0.0,1.0,80,0.00,CLR,,0.00,WeatherDisplay:10.37,2013-04-16 06:30:00,
2013-04-16 01:35:00,37.6,32.3,29.86,WNW,299,0.0,3.0,81,0.00,CLR,,0.00,WeatherDisplay:10.37,2013-04-16 06:35:00,
2013-04-16 01:40:00,37.5,32.2,29.86,WNW,300,1.0,4.0,81,0.00,CLR,,0.00,WeatherDisplay:10.37,2013-04-16 06:40:00,
2013-04-16 01:45:00,37.5,31.6,29.86,WNW,301,2.0,6.0,79,0.00,CLR,,0.00,WeatherDisplay:10.37,2013-04-16 06:45:00,
2013-04-16 01:50:00,37.6,31.4,29.86,NW,305,1.0,5.0,78,0.00,CLR,,0.00,WeatherDisplay:10.37,2013-04-16 06:50:00,
2013-04-16 01:55:00,37.8,31.5,29.86,WNW,301,0.0,4.0,78,0.00,CLR,,0.00,WeatherDisplay:10.37,2013-04-16 06:55:00,
2013-04-16 02:00:00,37.6,31.7,29.86,West,271,0.0,3.0,79,0.00,CLR,,0.00,WeatherDisplay:10.37,2013-04-16 07:00:00,
2013-04-16 02:05:00,37.5,31.5,29.86,West,265,1.0,3.0,79,0.00,CLR,,0.00,WeatherDisplay:10.37,2013-04-16 07:05:00,
2013-04-16 02:10:00,37.2,31.6,29.86,West,265,0.0,2.0,80,0.00,CLR,,0.00,WeatherDisplay:10.37,2013-04-16 07:10:00,
2013-04-16 02:15:00,37.0,31.4,29.87,West,265,1.0,3.0,80,0.00,CLR,,0.00,WeatherDisplay:10.37,2013-04-16 07:15:00,
2013-04-16 02:20:00,37.0,31.4,29.87,West,279,1.0,5.0,80,0.00,CLR,,0.00,WeatherDisplay:10.37,2013-04-16 07:20:00,
2013-04-16 02:25:00,36.9,31.3,29.87,WNW,290,0.0,2.0,80,0.00,CLR,,0.00,WeatherDisplay:10.37,2013-04-16 07:25:00,
2013-04-16 02:30:00,36.9,31.3,29.88,WNW,294,1.0,5.0,80,0.00,CLR,,0.00,WeatherDisplay:10.37,2013-04-16 07:30:00,
2013-04-16 02:35:00,36.9,31.6,29.88,WNW,294,2.0,5.0,81,0.00,CLR,,0.00,WeatherDisplay:10.37,2013-04-16 07:35:00,
2013-04-16 02:40:00,36.9,31.3,29.88,WNW,300,2.0,6.0,80,0.00,CLR,,0.00,WeatherDisplay:10.37,2013-04-16 07:40:00,
2013-04-16 02:45:00,37.0,31.4,29.88,NW,306,2.0,6.0,80,0.00,CLR,,0.00,WeatherDisplay:10.37,2013-04-16 07:45:00,
2013-04-16 02:50:00,36.9,31.3,29.88,NW,310,2.0,5.0,80,0.00,CLR,,0.00,WeatherDisplay:10.37,2013-04-16 07:50:00,
2013-04-16 02:55:00,36.8,31.2,29.88,NW,311,0.0,3.0,80,0.00,CLR,,0.00,WeatherDisplay:10.37,2013-04-16 07:55:00,
2013-04-16 03:00:00,36.6,30.7,29.89,NW,309,1.0,4.0,79,0.00,CLR,,0.00,WeatherDisplay:10.37,2013-04-16 08:00:00,
2013-04-16 03:05:00,36.5,30.9,29.89,NW,309,0.0,2.0,80,0.00,CLR,,0.00,WeatherDisplay:10.37,2013-04-16 08:05:00,
2013-04-16 03:10:00,36.2,30.6,29.89,NW,309,0.0,1.0,80,0.00,CLR,,0.00,WeatherDisplay:10.37,2013-04-16 08:10:00,
2013-04-16 03:15:00,35.9,30.6,29.91,NW,309,1.0,3.0,81,0.00,CLR,,0.00,WeatherDisplay:10.37,2013-04-16 08:15:00,
2013-04-16 03:20:00,35.6,30.6,29.91,NW,309,0.0,2.0,82,0.00,CLR,,0.00,WeatherDisplay:10.37,2013-04-16 08:20:00,
2013-04-16 03:25:00,35.2,30.3,29.91,NW,309,0.0,2.0,82,0.00,CLR,,0.00,WeatherDisplay:10.37,2013-04-16 08:25:00,
2013-04-16 03:30:00,34.9,30.3,29.91,NW,309,0.0,0.0,83,0.00,CLR,,0.00,WeatherDisplay:10.37,2013-04-16 08:30:00,
2013-04-16 03:35:00,34.6,30.3,29.91,NW,309,0.0,1.0,84,0.00,CLR,,0.00,WeatherDisplay:10.37,2013-04-16 08:35:00,
2013-04-16 03:40:00,34.3,30.0,29.91,NW,310,0.0,0.0,84,0.00,CLR,,0.00,WeatherDisplay:10.37,2013-04-16 08:40:00,
2013-04-16 03:45:00,34.1,29.8,29.90,NW,309,0.0,1.0,84,0.00,CLR,,0.00,WeatherDisplay:10.37,2013-04-16 08:45:00,
2013-04-16 03:50:00,33.8,29.8,29.90,NW,309,0.0,1.0,85,0.00,CLR,,0.00,WeatherDisplay:10.37,2013-04-16 08:50:00,
2013-04-16 03:55:00,33.7,30.0,29.90,NW,309,0.0,0.0,86,0.00,CLR,,0.00,WeatherDisplay:10.37,2013-04-16 08:55:00,
2013-04-16 04:00:00,33.7,30.0,29.91,NW,309,0.0,0.0,86,0.00,CLR,,0.00,WeatherDisplay:10.37,2013-04-16 09:00:00,
2013-04-16 04:05:00,33.5,30.0,29.91,NW,309,0.0,0.0,87,0.00,CLR,,0.00,WeatherDisplay:10.37,2013-04-16 09:05:00,
2013-04-16 04:10:00,33.5,30.0,29.91,NW,309,0.0,2.0,87,0.00,CLR,,0.00,WeatherDisplay:10.37,2013-04-16 09:10:00,
2013-04-16 04:15:00,33.4,29.9,29.92,NW,309,1.0,3.0,87,0.00,CLR,,0.00,WeatherDisplay:10.37,2013-04-16 09:15:00,
2013-04-16 04:20:00,33.7,30.2,29.92,NW,309,0.0,3.0,87,0.00,CLR,,0.00,WeatherDisplay:10.37,2013-04-16 09:20:00,
2013-04-16 04:25:00,34.0,30.0,29.92,NW,309,0.0,2.0,85,0.00,CLR,,0.00,WeatherDisplay:10.37,2013-04-16 09:25:00,
2013-04-16 04:30:00,34.4,30.0,29.91,NW,319,1.0,5.0,84,0.00,CLR,,0.00,WeatherDisplay:10.37,2013-04-16 09:30:00,
2013-04-16 04:35:00,34.6,30.0,29.91,NW,319,1.0,4.0,83,0.00,CLR,,0.00,WeatherDisplay:10.37,2013-04-16 09:35:00,
2013-04-16 04:40:00,34.6,30.0,29.91,NW,319,1.0,3.0,83,0.00,CLR,,0.00,WeatherDisplay:10.37,2013-04-16 09:40:00,
2013-04-16 04:45:00,34.6,29.7,29.93,WNW,283,1.0,5.0,82,0.00,CLR,,0.00,WeatherDisplay:10.37,2013-04-16 09:45:00,
2013-04-16 04:50:00,34.4,29.8,29.93,West,271,0.0,2.0,83,0.00,CLR,,0.00,WeatherDisplay:10.37,2013-04-16 09:50:00,
2013-04-16 04:55:00,34.1,29.5,29.93,West,271,0.0,2.0,83,0.00,CLR,,0.00,WeatherDisplay:10.37,2013-04-16 09:55:00,
2013-04-16 05:00:00,34.0,29.4,29.93,West,265,0.0,4.0,83,0.00,CLR,,0.00,WeatherDisplay:10.37,2013-04-16 10:00:00,
2013-04-16 05:05:00,34.0,29.4,29.93,West,271,1.0,3.0,83,0.00,CLR,,0.00,WeatherDisplay:10.37,2013-04-16 10:05:00,
2013-04-16 05:15:00,33.8,29.2,29.93,West,276,0.0,2.0,83,0.00,CLR,,0.00,WeatherDisplay:10.37,2013-04-16 10:15:00,
2013-04-16 05:20:00,33.8,29.2,29.93,West,278,1.0,4.0,83,0.00,CLR,,0.00,WeatherDisplay:10.37,2013-04-16 10:20:00,
2013-04-16 05:25:00,33.8,29.2,29.93,WNW,282,1.0,4.0,83,0.00,CLR,,0.00,WeatherDisplay:10.37,2013-04-16 10:25:00,
2013-04-16 05:30:00,33.7,29.1,29.93,WNW,292,1.0,3.0,83,0.00,CLR,,0.00,WeatherDisplay:10.37,2013-04-16 10:30:00,
2013-04-16 05:35:00,33.7,29.1,29.93,WNW,302,2.0,5.0,83,0.00,CLR,,0.00,WeatherDisplay:10.37,2013-04-16 10:35:00,
2013-04-16 05:40:00,33.8,29.2,29.93,NW,304,1.0,4.0,83,0.00,CLR,,0.00,WeatherDisplay:10.37,2013-04-16 10:40:00,
2013-04-16 05:45:00,33.8,29.2,29.94,NW,304,0.0,3.0,83,0.00,CLR,,0.00,WeatherDisplay:10.37,2013-04-16 10:45:00,
2013-04-16 05:50:00,33.7,29.1,29.94,WNW,296,2.0,4.0,83,0.00,CLR,,0.00,WeatherDisplay:10.37,2013-04-16 10:50:00,
2013-04-16 05:55:00,33.7,29.4,29.94,WNW,284,1.0,4.0,84,0.00,CLR,,0.00,WeatherDisplay:10.37,2013-04-16 10:55:00,
2013-04-16 06:00:00,33.7,29.4,29.94,WNW,283,1.0,4.0,84,0.00,CLR,,0.00,WeatherDisplay:10.37,2013-04-16 11:00:00,
2013-04-16 06:05:00,33.5,29.2,29.94,WNW,288,0.0,3.0,84,0.00,CLR,,0.00,WeatherDisplay:10.37,2013-04-16 11:05:00,
2013-04-16 06:10:00,33.5,29.5,29.94,West,281,2.0,5.0,85,0.00,CLR,,0.00,WeatherDisplay:10.37,2013-04-16 11:10:00,
2013-04-16 06:15:00,33.5,29.5,29.95,West,271,1.0,6.0,85,0.00,CLR,,0.00,WeatherDisplay:10.37,2013-04-16 11:15:00,
2013-04-16 06:20:00,33.5,29.2,29.95,West,263,1.0,5.0,84,0.00,CLR,,0.00,WeatherDisplay:10.37,2013-04-16 11:20:00,
2013-04-16 06:25:00,33.5,29.2,29.95,West,272,1.0,4.0,84,0.00,CLR,,0.00,WeatherDisplay:10.37,2013-04-16 11:25:00,
2013-04-16 06:30:00,33.7,29.4,29.96,WSW,257,1.0,6.0,84,0.00,CLR,,0.00,WeatherDisplay:10.37,2013-04-16 11:30:00,
2013-04-16 06:35:00,33.7,29.4,29.96,WSW,248,1.0,4.0,84,0.00,CLR,,0.00,WeatherDisplay:10.37,2013-04-16 11:35:00,
2013-04-16 06:40:00,33.7,29.4,29.96,WSW,256,1.0,4.0,84,0.00,CLR,,0.00,WeatherDisplay:10.37,2013-04-16 11:40:00,
2013-04-16 06:45:00,33.8,29.5,29.95,West,281,0.0,2.0,84,0.00,CLR,,0.00,WeatherDisplay:10.37,2013-04-16 11:45:00,
2013-04-16 06:50:00,34.0,29.7,29.95,West,272,1.0,6.0,84,0.00,CLR,,0.00,WeatherDisplay:10.37,2013-04-16 11:50:00,
2013-04-16 06:55:00,34.1,29.8,29.95,WSW,256,2.0,6.0,84,0.00,CLR,,0.00,WeatherDisplay:10.37,2013-04-16 11:55:00,
2013-04-16 07:00:00,34.3,30.0,29.97,WSW,248,2.0,6.0,84,0.00,CLR,,0.00,WeatherDisplay:10.37,2013-04-16 12:00:00,
2013-04-16 07:05:00,34.4,30.1,29.97,WSW,247,2.0,4.0,84,0.00,CLR,,0.00,WeatherDisplay:10.37,2013-04-16 12:05:00,
2013-04-16 07:10:00,34.4,30.1,29.97,West,267,2.0,5.0,84,0.00,CLR,,0.00,WeatherDisplay:10.37,2013-04-16 12:10:00,
2013-04-16 07:15:00,34.4,30.1,29.99,West,264,3.0,6.0,84,0.00,CLR,,0.00,WeatherDisplay:10.37,2013-04-16 12:15:00,
2013-04-16 07:20:00,34.4,30.1,29.99,West,262,2.0,5.0,84,0.00,CLR,,0.00,WeatherDisplay:10.37,2013-04-16 12:20:00,
2013-04-16 07:25:00,34.6,30.3,29.99,West,263,3.0,6.0,84,0.00,CLR,,0.00,WeatherDisplay:10.37,2013-04-16 12:25:00,
2013-04-16 07:30:00,34.7,30.4,30.00,West,261,3.0,7.0,84,0.00,CLR,,0.00,WeatherDisplay:10.37,2013-04-16 12:30:00,
2013-04-16 07:35:00,34.9,30.3,30.00,West,264,3.0,7.0,83,0.00,CLR,,0.00,WeatherDisplay:10.37,2013-04-16 12:35:00,
2013-04-16 07:40:00,35.0,30.3,30.00,West,278,2.0,5.0,83,0.00,CLR,,0.00,WeatherDisplay:10.37,2013-04-16 12:40:00,
2013-04-16 07:45:00,35.0,30.1,30.01,West,281,3.0,8.0,82,0.00,CLR,,0.00,WeatherDisplay:10.37,2013-04-16 12:45:00,
2013-04-16 07:50:00,35.1,30.5,30.01,WNW,285,3.0,7.0,83,0.00,CLR,,0.00,WeatherDisplay:10.37,2013-04-16 12:50:00,
2013-04-16 07:55:00,35.2,30.3,30.01,WNW,298,7.0,10.0,82,0.00,CLR,,0.00,WeatherDisplay:10.37,2013-04-16 12:55:00,
2013-04-16 08:00:00,35.3,30.4,30.01,WNW,300,3.0,7.0,82,0.00,CLR,,0.00,WeatherDisplay:10.37,2013-04-16 13:00:00,
2013-04-16 08:05:00,35.3,30.1,30.01,WNW,296,6.0,10.0,81,0.00,CLR,,0.00,WeatherDisplay:10.37,2013-04-16 13:05:00,
2013-04-16 08:10:00,35.5,30.2,30.01,WNW,298,6.0,12.0,81,0.00,CLR,,0.00,WeatherDisplay:10.37,2013-04-16 13:10:00,
2013-04-16 08:15:00,35.6,30.0,30.02,WNW,301,7.0,9.0,80,0.00,CLR,,0.00,WeatherDisplay:10.37,2013-04-16 13:15:00,
2013-04-16 08:20:00,35.9,30.3,30.02,WNW,302,6.0,10.0,80,0.00,CLR,,0.00,WeatherDisplay:10.37,2013-04-16 13:20:00,
2013-04-16 08:25:00,36.0,30.4,30.02,WNW,299,6.0,12.0,80,0.00,CLR,,0.00,WeatherDisplay:10.37,2013-04-16 13:25:00,
2013-04-16 08:30:00,36.2,30.3,30.03,WNW,298,7.0,12.0,79,0.00,CLR,,0.00,WeatherDisplay:10.37,2013-04-16 13:30:00,
2013-04-16 08:35:00,36.2,30.0,30.03,WNW,298,7.0,12.0,78,0.00,CLR,,0.00,WeatherDisplay:10.37,2013-04-16 13:35:00,
2013-04-16 08:40:00,36.2,30.0,30.03,WNW,298,9.0,13.0,78,0.00,CLR,,0.00,WeatherDisplay:10.37,2013-04-16 13:40:00,
2013-04-16 08:50:00,36.8,30.6,30.03,WNW,302,6.0,12.0,78,0.00,CLR,,0.00,WeatherDisplay:10.37,2013-04-16 13:50:00,
2013-04-16 08:55:00,36.8,29.9,30.03,WNW,300,8.0,12.0,76,0.00,CLR,,0.00,WeatherDisplay:10.37,2013-04-16 13:55:00,
2013-04-16 09:00:00,36.9,30.4,30.03,NW,309,7.0,12.0,77,0.00,CLR,,0.00,WeatherDisplay:10.37,2013-04-16 14:00:00,
2013-04-16 09:05:00,36.9,30.4,30.03,NW,305,7.0,12.0,77,0.00,CLR,,0.00,WeatherDisplay:10.37,2013-04-16 14:05:00,
2013-04-16 09:10:00,36.8,29.9,30.03,WNW,297,9.0,13.0,76,0.00,CLR,,0.00,WeatherDisplay:10.37,2013-04-16 14:10:00,
2013-04-16 09:15:00,36.9,30.4,30.04,WNW,297,7.0,13.0,77,0.00,CLR,,0.00,WeatherDisplay:10.37,2013-04-16 14:15:00,
2013-04-16 09:20:00,37.2,30.3,30.04,NW,306,7.0,12.0,76,0.00,CLR,,0.00,WeatherDisplay:10.37,2013-04-16 14:20:00,
2013-04-16 09:30:00,37.3,30.7,30.04,WNW,302,8.0,12.0,77,0.00,CLR,,0.00,WeatherDisplay:10.37,2013-04-16 14:30:00,
2013-04-16 09:35:00,37.3,30.4,30.04,WNW,299,8.0,13.0,76,0.00,CLR,,0.00,WeatherDisplay:10.37,2013-04-16 14:35:00,
2013-04-16 09:40:00,37.6,31.4,30.04,WNW,297,6.0,12.0,78,0.00,CLR,,0.00,WeatherDisplay:10.37,2013-04-16 14:40:00,
2013-04-16 09:45:00,37.9,31.7,30.04,WNW,298,7.0,12.0,78,0.00,CLR,,0.00,WeatherDisplay:10.37,2013-04-16 14:45:00,
2013-04-16 09:50:00,37.6,30.4,30.04,WNW,300,7.0,12.0,75,0.00,CLR,,0.00,WeatherDisplay:10.37,2013-04-16 14:50:00,
2013-04-16 09:55:00,38.3,31.7,30.04,WNW,303,6.0,12.0,77,0.00,CLR,,0.00,WeatherDisplay:10.37,2013-04-16 14:55:00,
2013-04-16 10:00:00,38.5,31.6,30.04,WNW,300,7.0,10.0,76,0.00,CLR,,0.00,WeatherDisplay:10.37,2013-04-16 15:00:00,
2013-04-16 10:05:00,38.5,31.3,30.04,WNW,295,7.0,12.0,75,0.00,CLR,,0.00,WeatherDisplay:10.37,2013-04-16 15:05:00,
2013-04-16 10:10:00,38.8,31.9,30.04,WNW,301,7.0,12.0,76,0.00,CLR,,0.00,WeatherDisplay:10.37,2013-04-16 15:10:00,
2013-04-16 10:15:00,38.8,31.6,30.04,WNW,301,7.0,13.0,75,0.00,CLR,,0.00,WeatherDisplay:10.37,2013-04-16 15:15:00,
2013-04-16 10:20:00,39.1,31.9,30.04,NW,304,7.0,12.0,75,0.00,CLR,,0.00,WeatherDisplay:10.37,2013-04-16 15:20:00,
2013-04-16 10:25:00,39.2,31.3,30.04,WNW,302,7.0,13.0,73,0.00,CLR,,0.00,WeatherDisplay:10.37,2013-04-16 15:25:00,
2013-04-16 10:30:00,39.2,31.2,30.05,WNW,298,8.0,12.0,73,0.00,CLR,,0.00,WeatherDisplay:10.37,2013-04-16 15:30:00,
2013-04-16 10:35:00,39.7,32.4,30.05,WNW,300,5.0,8.0,75,0.00,CLR,,0.00,WeatherDisplay:10.37,2013-04-16 15:35:00,
2013-04-16 10:40:00,39.9,32.3,30.05,WNW,297,6.0,8.0,74,0.00,CLR,,0.00,WeatherDisplay:10.37,2013-04-16 15:40:00,
2013-04-16 10:45:00,40.1,32.1,30.06,WNW,291,6.0,10.0,73,0.00,CLR,,0.00,WeatherDisplay:10.37,2013-04-16 15:45:00,
2013-04-16 10:50:00,40.1,32.1,30.06,WNW,294,7.0,12.0,73,0.00,CLR,,0.00,WeatherDisplay:10.37,2013-04-16 15:50:00,
2013-04-16 10:55:00,40.3,31.6,30.06,NW,305,7.0,12.0,71,0.00,CLR,,0.00,WeatherDisplay:10.37,2013-04-16 15:55:00,
2013-04-16 11:00:00,40.8,32.8,30.06,NW,312,6.0,12.0,73,0.00,CLR,,0.00,WeatherDisplay:10.37,2013-04-16 16:00:00,
2013-04-16 11:05:00,40.8,31.8,30.06,NW,321,8.0,13.0,70,0.00,CLR,,0.00,WeatherDisplay:10.37,2013-04-16 16:05:00,
2013-04-16 11:10:00,41.1,32.8,30.06,NW,317,5.0,9.0,72,0.00,CLR,,0.00,WeatherDisplay:10.37,2013-04-16 16:10:00,
2013-04-16 11:15:00,41.1,31.7,30.07,NW,305,7.0,12.0,69,0.00,CLR,,0.00,WeatherDisplay:10.37,2013-04-16 16:15:00,
2013-04-16 11:20:00,41.3,33.0,30.07,WNW,302,6.0,12.0,72,0.00,CLR,,0.00,WeatherDisplay:10.37,2013-04-16 16:20:00,
2013-04-16 11:25:00,41.6,32.6,30.07,WNW,298,7.0,12.0,70,0.00,CLR,,0.00,WeatherDisplay:10.37,2013-04-16 16:25:00,
2013-04-16 11:30:00,41.4,31.6,30.07,WNW,299,8.0,14.0,68,0.00,CLR,,0.00,WeatherDisplay:10.37,2013-04-16 16:30:00,
2013-04-16 11:35:00,42.0,34.3,30.07,NW,309,7.0,13.0,74,0.00,CLR,,0.00,WeatherDisplay:10.37,2013-04-16 16:35:00,
2013-04-16 11:40:00,41.9,32.8,30.07,NW,308,7.0,12.0,70,0.00,CLR,,0.00,WeatherDisplay:10.37,2013-04-16 16:40:00,
2013-04-16 11:45:00,41.7,33.0,30.08,WNW,299,7.0,13.0,71,0.00,CLR,,0.00,WeatherDisplay:10.37,2013-04-16 16:45:00,
2013-04-16 11:50:00,42.4,34.0,30.08,WNW,301,5.0,12.0,72,0.00,CLR,,0.00,WeatherDisplay:10.37,2013-04-16 16:50:00,
2013-04-16 11:55:00,42.6,33.5,30.08,WNW,300,5.0,8.0,70,0.00,CLR,,0.00,WeatherDisplay:10.37,2013-04-16 16:55:00,
2013-04-16 12:05:00,42.6,33.5,30.08,WNW,296,5.0,8.0,70,0.00,CLR,,0.00,WeatherDisplay:10.37,2013-04-16 17:05:00,
2013-04-16 12:10:00,42.8,33.7,30.08,WNW,299,5.0,9.0,70,0.00,CLR,,0.00,WeatherDisplay:10.37,2013-04-16 17:10:00,
2013-04-16 12:15:00,42.9,33.4,30.09,WNW,302,6.0,8.0,69,0.00,CLR,,0.00,WeatherDisplay:10.37,2013-04-16 17:15:00,
2013-04-16 12:20:00,42.8,32.6,30.09,WNW,299,6.0,12.0,67,0.00,CLR,,0.00,WeatherDisplay:10.37,2013-04-16 17:20:00,
2013-04-16 12:30:00,42.9,34.1,30.09,NW,308,3.0,9.0,71,0.00,CLR,,0.00,WeatherDisplay:10.37,2013-04-16 17:30:00,
2013-04-16 12:35:00,43.5,33.6,30.09,NW,312,6.0,9.0,68,0.00,CLR,,0.00,WeatherDisplay:10.37,2013-04-16 17:35:00,
2013-04-16 12:40:00,43.2,33.3,30.09,NW,309,5.0,9.0,68,0.00,CLR,,0.00,WeatherDisplay:10.37,2013-04-16 17:40:00,
2013-04-16 12:45:00,43.8,34.6,30.09,NW,317,5.0,13.0,70,0.00,CLR,,0.00,WeatherDisplay:10.37,2013-04-16 17:45:00,
2013-04-16 12:50:00,43.9,33.2,30.09,NW,319,6.0,12.0,66,0.00,CLR,,0.00,WeatherDisplay:10.37,2013-04-16 17:50:00,
2013-04-16 12:55:00,44.2,34.3,30.09,NW,312,6.0,9.0,68,0.00,CLR,,0.00,WeatherDisplay:10.37,2013-04-16 17:55:00,
2013-04-16 13:00:00,44.3,34.8,30.10,NW,305,5.0,9.0,69,0.00,CLR,,0.00,WeatherDisplay:10.37,2013-04-16 18:00:00,
2013-04-16 13:05:00,44.3,34.0,30.10,WNW,303,5.0,9.0,67,0.00,CLR,,0.00,WeatherDisplay:10.37,2013-04-16 18:05:00,
2013-04-16 13:10:00,44.3,33.7,30.10,NW,310,6.0,10.0,66,0.00,CLR,,0.00,WeatherDisplay:10.37,2013-04-16 18:10:00,
2013-04-16 13:15:00,44.3,34.0,30.10,NW,316,6.0,12.0,67,0.00,CLR,,0.00,WeatherDisplay:10.37,2013-04-16 18:15:00,
2013-04-16 13:20:00,44.9,33.8,30.10,NW,312,5.0,9.0,65,0.00,CLR,,0.00,WeatherDisplay:10.37,2013-04-16 18:20:00,
2013-04-16 13:25:00,44.8,33.8,30.10,WNW,300,5.0,9.0,65,0.00,CLR,,0.00,WeatherDisplay:10.37,2013-04-16 18:25:00,
2013-04-16 13:30:00,44.9,33.5,30.10,WNW,300,6.0,9.0,64,0.00,CLR,,0.00,WeatherDisplay:10.37,2013-04-16 18:30:00,
2013-04-16 13:35:00,45.5,34.0,30.10,NW,314,5.0,9.0,64,0.00,CLR,,0.00,WeatherDisplay:10.37,2013-04-16 18:35:00,
2013-04-16 13:40:00,45.5,34.7,30.10,NW,314,6.0,10.0,66,0.00,CLR,,0.00,WeatherDisplay:10.37,2013-04-16 18:40:00,
2013-04-16 13:45:00,45.5,33.2,30.10,NW,305,6.0,10.0,62,0.00,CLR,,0.00,WeatherDisplay:10.37,2013-04-16 18:45:00,
2013-04-16 13:50:00,45.9,34.4,30.10,NW,305,5.0,8.0,64,0.00,CLR,,0.00,WeatherDisplay:10.37,2013-04-16 18:50:00,
2013-04-16 13:55:00,45.8,33.1,30.10,NW,307,5.0,9.0,61,0.00,CLR,,0.00,WeatherDisplay:10.37,2013-04-16 18:55:00,
2013-04-16 14:00:00,45.5,32.4,30.09,WNW,303,7.0,12.0,60,0.00,CLR,,0.00,WeatherDisplay:10.37,2013-04-16 19:00:00,
2013-04-16 14:05:00,45.8,34.3,30.09,NW,305,5.0,10.0,64,0.00,CLR,,0.00,WeatherDisplay:10.37,2013-04-16 19:05:00,
2013-04-16 14:10:00,46.3,33.6,30.09,WNW,303,6.0,8.0,61,0.00,CLR,,0.00,WeatherDisplay:10.37,2013-04-16 19:10:00,
2013-04-16 14:15:00,46.1,32.6,30.09,WNW,301,6.0,8.0,59,0.00,CLR,,0.00,WeatherDisplay:10.37,2013-04-16 19:15:00,
2013-04-16 14:20:00,46.3,32.8,30.09,NW,305,7.0,12.0,59,0.00,CLR,,0.00,WeatherDisplay:10.37,2013-04-16 19:20:00,
2013-04-16 14:25:00,45.7,32.6,30.09,NW,313,6.0,12.0,60,0.00,CLR,,0.00,WeatherDisplay:10.37,2013-04-16 19:25:00,
2013-04-16 14:30:00,46.2,33.9,30.09,NW,307,3.0,10.0,62,0.00,CLR,,0.00,WeatherDisplay:10.37,2013-04-16 19:30:00,
2013-04-16 14:35:00,46.5,33.3,30.09,WNW,303,7.0,10.0,60,0.00,CLR,,0.00,WeatherDisplay:10.37,2013-04-16 19:35:00,
2013-04-16 14:40:00,46.1,33.4,30.09,WNW,301,7.0,12.0,61,0.00,CLR,,0.00,WeatherDisplay:10.37,2013-04-16 19:40:00,
2013-04-16 14:45:00,46.3,33.2,30.09,WNW,297,8.0,10.0,60,0.00,CLR,,0.00,WeatherDisplay:10.37,2013-04-16 19:45:00,
2013-04-16 14:50:00,46.5,34.5,30.09,WNW,299,5.0,9.0,63,0.00,CLR,,0.00,WeatherDisplay:10.37,2013-04-16 19:50:00,
2013-04-16 14:55:00,46.9,34.2,30.09,NW,305,5.0,12.0,61,0.00,CLR,,0.00,WeatherDisplay:10.37,2013-04-16 19:55:00,
2013-04-16 15:00:00,47.0,32.5,30.08,NW,306,7.0,13.0,57,0.00,CLR,,0.00,WeatherDisplay:10.37,2013-04-16 20:00:00,
2013-04-16 15:05:00,47.6,35.2,30.08,NW,322,9.0,13.0,62,0.00,CLR,,0.00,WeatherDisplay:10.37,2013-04-16 20:05:00,
2013-04-16 15:10:00,48.0,34.8,30.08,NNW,330,8.0,13.0,60,0.00,CLR,,0.00,WeatherDisplay:10.37,2013-04-16 20:10:00,
2013-04-16 15:15:00,47.9,34.3,30.09,NW,325,5.0,13.0,59,0.00,CLR,,0.00,WeatherDisplay:10.37,2013-04-16 20:15:00,
2013-04-16 15:20:00,47.9,35.1,30.09,NNW,329,8.0,12.0,61,0.00,CLR,,0.00,WeatherDisplay:10.37,2013-04-16 20:20:00,
2013-04-16 15:25:00,48.0,34.3,30.09,NNW,337,9.0,15.0,59,0.00,CLR,,0.00,WeatherDisplay:10.37,2013-04-16 20:25:00,
2013-04-16 15:30:00,47.9,34.7,30.10,NNW,334,5.0,14.0,60,0.00,CLR,,0.00,WeatherDisplay:10.37,2013-04-16 20:30:00,
2013-04-16 15:35:00,48.0,34.7,30.10,NNW,336,7.0,12.0,60,0.00,CLR,,0.00,WeatherDisplay:10.37,2013-04-16 20:35:00,
2013-04-16 15:40:00,48.0,33.0,30.10,NNW,332,6.0,13.0,56,0.00,CLR,,0.00,WeatherDisplay:10.37,2013-04-16 20:40:00,
2013-04-16 15:45:00,48.2,33.7,30.09,NNW,345,13.0,20.0,57,0.00,CLR,,0.00,WeatherDisplay:10.37,2013-04-16 20:45:00,
2013-04-16 15:50:00,48.0,32.6,30.09,North,4,12.0,16.0,55,0.00,CLR,,0.00,WeatherDisplay:10.37,2013-04-16 20:50:00,
2013-04-16 15:55:00,48.0,33.0,30.09,North,4,13.0,16.0,56,0.00,CLR,,0.00,WeatherDisplay:10.37,2013-04-16 20:55:00,
2013-04-16 16:00:00,48.1,34.4,30.11,North,357,10.0,14.0,59,0.00,CLR,,0.00,WeatherDisplay:10.37,2013-04-16 21:00:00,
2013-04-16 16:05:00,48.2,33.7,30.11,North,352,5.0,13.0,57,0.00,CLR,,0.00,WeatherDisplay:10.37,2013-04-16 21:05:00,
2013-04-16 16:10:00,48.6,34.5,30.11,NNW,342,6.0,13.0,58,0.00,CLR,,0.00,WeatherDisplay:10.37,2013-04-16 21:10:00,
2013-04-16 16:15:00,48.5,33.5,30.11,NNW,333,3.0,10.0,56,0.00,CLR,,0.00,WeatherDisplay:10.37,2013-04-16 21:15:00,
2013-04-16 16:20:00,48.4,33.9,30.11,North,354,9.0,12.0,57,0.00,CLR,,0.00,WeatherDisplay:10.37,2013-04-16 21:20:00,
2013-04-16 16:25:00,48.3,32.9,30.11,NNW,342,5.0,9.0,55,0.00,CLR,,0.00,WeatherDisplay:10.37,2013-04-16 21:25:00,
2013-04-16 16:30:00,48.6,34.1,30.11,NNW,342,8.0,10.0,57,0.00,CLR,,0.00,WeatherDisplay:10.37,2013-04-16 21:30:00,
2013-04-16 16:35:00,48.3,32.4,30.11,North,1,6.0,9.0,54,0.00,CLR,,0.00,WeatherDisplay:10.37,2013-04-16 21:35:00,
2013-04-16 16:40:00,48.3,31.5,30.11,North,358,7.0,12.0,52,0.00,CLR,,0.00,WeatherDisplay:10.37,2013-04-16 21:40:00,
2013-04-16 16:45:00,48.6,33.6,30.11,North,350,5.0,9.0,56,0.00,CLR,,0.00,WeatherDisplay:10.37,2013-04-16 21:45:00,
2013-04-16 16:50:00,48.8,32.4,30.11,NNW,338,5.0,9.0,53,0.00,CLR,,0.00,WeatherDisplay:10.37,2013-04-16 21:50:00,
2013-04-16 16:55:00,48.8,33.8,30.11,North,357,1.0,8.0,56,0.00,CLR,,0.00,WeatherDisplay:10.37,2013-04-16 21:55:00,
2013-04-16 17:00:00,49.2,32.8,30.11,North,350,3.0,7.0,53,0.00,CLR,,0.00,WeatherDisplay:10.37,2013-04-16 22:00:00,
2013-04-16 17:05:00,49.1,33.2,30.11,North,351,3.0,9.0,54,0.00,CLR,,0.00,WeatherDisplay:10.37,2013-04-16 22:05:00,
2013-04-16 17:10:00,48.9,32.5,30.11,North,354,3.0,6.0,53,0.00,CLR,,0.00,WeatherDisplay:10.37,2013-04-16 22:10:00,
2013-04-16 17:15:00,49.2,34.6,30.11,North,352,5.0,7.0,57,0.00,CLR,,0.00,WeatherDisplay:10.37,2013-04-16 22:15:00,
2013-04-16 17:20:00,49.2,34.6,30.11,North,10,6.0,9.0,57,0.00,CLR,,0.00,WeatherDisplay:10.37,2013-04-16 22:20:00,
2013-04-16 17:25:00,49.3,32.9,30.11,North,8,6.0,9.0,53,0.00,CLR,,0.00,WeatherDisplay:10.37,2013-04-16 22:25:00,
2013-04-16 17:30:00,49.3,33.3,30.12,North,360,6.0,12.0,54,0.00,CLR,,0.00,WeatherDisplay:10.37,2013-04-16 22:30:00,
2013-04-16 17:35:00,49.1,33.6,30.12,North,356,6.0,10.0,55,0.00,CLR,,0.00,WeatherDisplay:10.37,2013-04-16 22:35:00,
2013-04-16 17:40:00,49.1,33.6,30.12,NNE,12,5.0,7.0,55,0.00,CLR,,0.00,WeatherDisplay:10.37,2013-04-16 22:40:00,
2013-04-16 17:45:00,49.1,32.7,30.12,NNE,18,7.0,12.0,53,0.00,CLR,,0.00,WeatherDisplay:10.37,2013-04-16 22:45:00,
2013-04-16 17:50:00,48.9,32.0,30.12,North,9,7.0,13.0,52,0.00,CLR,,0.00,WeatherDisplay:10.37,2013-04-16 22:50:00,
2013-04-16 17:55:00,49.2,33.7,30.12,NNE,13,9.0,12.0,55,0.00,CLR,,0.00,WeatherDisplay:10.37,2013-04-16 22:55:00,
2013-04-16 18:00:00,49.1,34.1,30.13,NNE,23,8.0,12.0,56,0.00,CLR,,0.00,WeatherDisplay:10.37,2013-04-16 23:00:00,
2013-04-16 18:05:00,49.2,34.6,30.13,NE,37,5.0,12.0,57,0.00,CLR,,0.00,WeatherDisplay:10.37,2013-04-16 23:05:00,
2013-04-16 18:10:00,49.2,35.0,30.13,NNE,27,6.0,10.0,58,0.00,CLR,,0.00,WeatherDisplay:10.37,2013-04-16 23:10:00,
2013-04-16 18:15:00,49.1,34.5,30.13,NNE,17,7.0,10.0,57,0.00,CLR,,0.00,WeatherDisplay:10.37,2013-04-16 23:15:00,
2013-04-16 18:20:00,48.8,33.3,30.13,NNE,18,7.0,12.0,55,0.00,CLR,,0.00,WeatherDisplay:10.37,2013-04-16 23:20:00,
2013-04-16 18:25:00,48.7,33.7,30.13,NNE,17,5.0,12.0,56,0.00,CLR,,0.00,WeatherDisplay:10.37,2013-04-16 23:25:00,
2013-04-16 18:30:00,48.8,34.7,30.14,NNE,29,5.0,9.0,58,0.00,CLR,,0.00,WeatherDisplay:10.37,2013-04-16 23:30:00,
2013-04-16 18:35:00,48.6,33.6,30.14,NNE,30,6.0,9.0,56,0.00,CLR,,0.00,WeatherDisplay:10.37,2013-04-16 23:35:00,
2013-04-16 18:40:00,48.5,33.1,30.14,NNE,26,5.0,8.0,55,0.00,CLR,,0.00,WeatherDisplay:10.37,2013-04-16 23:40:00,
2013-04-16 18:45:00,48.3,33.3,30.14,NNE,24,6.0,9.0,56,0.00,CLR,,0.00,WeatherDisplay:10.37,2013-04-16 23:45:00,
2013-04-16 18:55:00,48.0,33.9,30.14,NNE,23,5.0,8.0,58,0.00,CLR,,0.00,WeatherDisplay:10.37,2013-04-16 23:55:00,
2013-04-16 19:00:00,47.9,32.5,30.14,NNE,14,7.0,9.0,55,0.00,CLR,,0.00,WeatherDisplay:10.37,2013-04-17 00:00:00,
2013-04-16 19:05:00,47.6,34.0,30.14,NNE,18,6.0,9.0,59,0.00,CLR,,0.00,WeatherDisplay:10.37,2013-04-17 00:05:00,
2013-04-16 19:10:00,47.4,32.5,30.14,NNE,23,5.0,9.0,56,0.00,CLR,,0.00,WeatherDisplay:10.37,2013-04-17 00:10:00,
2013-04-16 19:15:00,47.2,33.6,30.14,NNE,22,5.0,6.0,59,0.00,CLR,,0.00,WeatherDisplay:10.37,2013-04-17 00:15:00,
2013-04-16 19:20:00,47.0,34.2,30.14,NNE,24,3.0,7.0,61,0.00,CLR,,0.00,WeatherDisplay:10.37,2013-04-17 00:20:00,
2013-04-16 19:25:00,46.6,35.1,30.14,NNE,29,3.0,6.0,64,0.00,CLR,,0.00,WeatherDisplay:10.37,2013-04-17 00:25:00,
2013-04-16 19:30:00,46.2,35.1,30.14,NE,35,3.0,7.0,65,0.00,CLR,,0.00,WeatherDisplay:10.37,2013-04-17 00:30:00,
2013-04-16 19:35:00,45.9,34.4,30.14,NE,41,2.0,6.0,64,0.00,CLR,,0.00,WeatherDisplay:10.37,2013-04-17 00:35:00,
2013-04-16 19:40:00,45.6,34.1,30.14,NE,42,3.0,7.0,64,0.00,CLR,,0.00,WeatherDisplay:10.37,2013-04-17 00:40:00,
2013-04-16 19:45:00,45.4,34.7,30.16,NE,41,2.0,5.0,66,0.00,CLR,,0.00,WeatherDisplay:10.37,2013-04-17 00:45:00,
2013-04-16 19:50:00,45.1,34.8,30.16,NE,48,2.0,4.0,67,0.00,CLR,,0.00,WeatherDisplay:10.37,2013-04-17 00:50:00,
2013-04-16 19:55:00,44.6,34.7,30.16,NE,51,2.0,4.0,68,0.00,CLR,,0.00,WeatherDisplay:10.37,2013-04-17 00:55:00,
2013-04-16 20:00:00,44.3,34.0,30.16,NE,53,2.0,5.0,67,0.00,CLR,,0.00,WeatherDisplay:10.37,2013-04-17 01:00:00,
2013-04-16 20:05:00,44.2,34.6,30.16,ENE,57,2.0,5.0,69,0.00,CLR,,0.00,WeatherDisplay:10.37,2013-04-17 01:05:00,
2013-04-16 20:10:00,43.8,34.3,30.16,NE,55,2.0,4.0,69,0.00,CLR,,0.00,WeatherDisplay:10.37,2013-04-17 01:10:00,
2013-04-16 20:15:00,43.6,33.7,30.16,NE,50,3.0,7.0,68,0.00,CLR,,0.00,WeatherDisplay:10.37,2013-04-17 01:15:00,
2013-04-16 20:20:00,43.5,33.6,30.16,NE,48,2.0,6.0,68,0.00,CLR,,0.00,WeatherDisplay:10.37,2013-04-17 01:20:00,
2013-04-16 20:25:00,43.3,33.8,30.16,ENE,58,2.0,5.0,69,0.00,CLR,,0.00,WeatherDisplay:10.37,2013-04-17 01:25:00,
2013-04-16 20:30:00,43.3,33.8,30.17,ENE,75,2.0,5.0,69,0.00,CLR,,0.00,WeatherDisplay:10.37,2013-04-17 01:30:00,
2013-04-16 20:35:00,43.2,34.4,30.17,East,81,2.0,6.0,71,0.00,CLR,,0.00,WeatherDisplay:10.37,2013-04-17 01:35:00,
2013-04-16 20:40:00,43.1,34.0,30.17,East,80,2.0,5.0,70,0.00,CLR,,0.00,WeatherDisplay:10.37,2013-04-17 01:40:00,
2013-04-16 20:45:00,42.9,33.8,30.17,East,81,2.0,5.0,70,0.00,CLR,,0.00,WeatherDisplay:10.37,2013-04-17 01:45:00,
2013-04-16 20:50:00,42.8,33.7,30.17,East,80,2.0,5.0,70,0.00,CLR,,0.00,WeatherDisplay:10.37,2013-04-17 01:50:00,
2013-04-16 20:55:00,42.6,33.8,30.17,East,80,3.0,5.0,71,0.00,CLR,,0.00,WeatherDisplay:10.37,2013-04-17 01:55:00,
2013-04-16 21:00:00,42.5,33.8,30.18,East,80,2.0,5.0,71,0.00,CLR,,0.00,WeatherDisplay:10.37,2013-04-17 02:00:00,
2013-04-16 21:05:00,42.3,33.5,30.18,ENE,78,2.0,5.0,71,0.00,CLR,,0.00,WeatherDisplay:10.37,2013-04-17 02:05:00,
2013-04-16 21:10:00,42.2,33.8,30.18,ENE,74,2.0,5.0,72,0.00,CLR,,0.00,WeatherDisplay:10.37,2013-04-17 02:10:00,
2013-04-16 21:15:00,42.1,33.7,30.19,ENE,71,2.0,4.0,72,0.00,CLR,,0.00,WeatherDisplay:10.37,2013-04-17 02:15:00,
2013-04-16 21:20:00,41.9,33.5,30.19,ENE,71,2.0,3.0,72,0.00,CLR,,0.00,WeatherDisplay:10.37,2013-04-17 02:20:00,
2013-04-16 21:25:00,41.8,33.4,30.19,ENE,71,2.0,4.0,72,0.00,CLR,,0.00,WeatherDisplay:10.37,2013-04-17 02:25:00,
2013-04-16 21:30:00,41.5,33.5,30.19,ENE,71,1.0,3.0,73,0.00,CLR,,0.00,WeatherDisplay:10.37,2013-04-17 02:30:00,
2013-04-16 21:35:00,41.2,33.2,30.19,ENE,71,1.0,2.0,73,0.00,CLR,,0.00,WeatherDisplay:10.37,2013-04-17 02:35:00,
2013-04-16 21:40:00,41.1,33.4,30.19,ENE,71,2.0,3.0,74,0.00,CLR,,0.00,WeatherDisplay:10.37,2013-04-17 02:40:00,
2013-04-16 21:45:00,41.1,33.4,30.19,ENE,71,1.0,2.0,74,0.00,CLR,,0.00,WeatherDisplay:10.37,2013-04-17 02:45:00,
2013-04-16 21:50:00,40.9,33.6,30.19,ENE,71,1.0,2.0,75,0.00,CLR,,0.00,WeatherDisplay:10.37,2013-04-17 02:50:00,
2013-04-16 21:55:00,40.8,33.8,30.19,ENE,71,1.0,2.0,76,0.00,CLR,,0.00,WeatherDisplay:10.37,2013-04-17 02:55:00,
2013-04-16 22:00:00,40.5,34.5,30.19,ENE,71,1.0,2.0,79,0.00,CLR,,0.00,WeatherDisplay:10.37,2013-04-17 03:00:00,
2013-04-16 22:05:00,40.2,33.9,30.19,ENE,71,0.0,2.0,78,0.00,CLR,,0.00,WeatherDisplay:10.37,2013-04-17 03:05:00,
2013-04-16 22:10:00,40.3,34.0,30.19,ENE,71,0.0,2.0,78,0.00,CLR,,0.00,WeatherDisplay:10.37,2013-04-17 03:10:00,
2013-04-16 22:15:00,40.3,34.0,30.20,ENE,71,1.0,2.0,78,0.00,CLR,,0.00,WeatherDisplay:10.37,2013-04-17 03:15:00,
2013-04-16 22:20:00,40.3,34.0,30.20,ENE,71,0.0,1.0,78,0.00,CLR,,0.00,WeatherDisplay:10.37,2013-04-17 03:20:00,
2013-04-16 22:25:00,40.3,34.0,30.20,ENE,71,0.0,0.0,78,0.00,CLR,,0.00,WeatherDisplay:10.37,2013-04-17 03:25:00,
2013-04-16 22:30:00,40.1,33.8,30.20,ENE,71,0.0,1.0,78,0.00,CLR,,0.00,WeatherDisplay:10.37,2013-04-17 03:30:00,
2013-04-16 22:35:00,39.6,33.3,30.20,ENE,71,0.0,0.0,78,0.00,CLR,,0.00,WeatherDisplay:10.37,2013-04-17 03:35:00,
2013-04-16 22:40:00,39.3,33.3,30.20,ENE,71,0.0,0.0,79,0.00,CLR,,0.00,WeatherDisplay:10.37,2013-04-17 03:40:00,
2013-04-16 22:45:00,39.1,33.1,30.20,ENE,71,0.0,0.0,79,0.00,CLR,,0.00,WeatherDisplay:10.37,2013-04-17 03:45:00,
2013-04-16 22:50:00,38.9,33.3,30.20,ENE,71,0.0,0.0,80,0.00,CLR,,0.00,WeatherDisplay:10.37,2013-04-17 03:50:00,
2013-04-16 22:55:00,39.2,32.9,30.20,ENE,71,0.0,0.0,78,0.00,CLR,,0.00,WeatherDisplay:10.37,2013-04-17 03:55:00,
2013-04-16 23:00:00,39.5,33.2,30.20,ENE,71,1.0,2.0,78,0.00,CLR,,0.00,WeatherDisplay:10.37,2013-04-17 04:00:00,
2013-04-16 23:05:00,39.8,33.5,30.20,ENE,71,1.0,2.0,78,0.00,CLR,,0.00,WeatherDisplay:10.37,2013-04-17 04:05:00,
2013-04-16 23:10:00,40.1,34.1,30.20,ENE,71,1.0,3.0,79,0.00,CLR,,0.00,WeatherDisplay:10.37,2013-04-17 04:10:00,
2013-04-16 23:15:00,40.2,34.5,30.20,ENE,71,1.0,3.0,80,0.00,CLR,,0.00,WeatherDisplay:10.37,2013-04-17 04:15:00,
2013-04-16 23:20:00,40.1,34.4,30.20,ENE,71,1.0,2.0,80,0.00,CLR,,0.00,WeatherDisplay:10.37,2013-04-17 04:20:00,
2013-04-16 23:25:00,40.1,33.8,30.20,ENE,71,1.0,2.0,78,0.00,CLR,,0.00,WeatherDisplay:10.37,2013-04-17 04:25:00,
2013-04-16 23:30:00,40.5,33.8,30.20,ENE,71,1.0,2.0,77,0.00,CLR,,0.00,WeatherDisplay:10.37,2013-04-17 04:30:00,
2013-04-16 23:35:00,40.6,33.6,30.20,ENE,71,1.0,2.0,76,0.00,CLR,,0.00,WeatherDisplay:10.37,2013-04-17 04:35:00,
2013-04-16 23:40:00,40.6,34.0,30.20,ENE,72,0.0,1.0,77,0.00,CLR,,0.00,WeatherDisplay:10.37,2013-04-17 04:40:00,
2013-04-16 23:45:00,40.6,34.3,30.21,ENE,71,0.0,1.0,78,0.00,CLR,,0.00,WeatherDisplay:10.37,2013-04-17 04:45:00,
2013-04-16 23:50:00,40.6,33.6,30.21,ENE,70,0.0,3.0,76,0.00,CLR,,0.00,WeatherDisplay:10.37,2013-04-17 04:50:00,
2013-04-16 23:55:00,40.6,33.6,30.21,ENE,71,0.0,1.0,76,0.00,CLR,,0.00,WeatherDisplay:10.37,2013-04-17 04:55:00,